TimeCDT,TemperatureF,Dew PointF,Humidity,Sea Level PressureIn,VisibilityMPH,Wind Direction,Wind SpeedMPH,Gust SpeedMPH,PrecipitationIn,Events,Conditions,WindDirDegrees,DateUTC
12:53 AM,82.9,61.0,47,29.58,-9999.0,SE,15.0,26.5,N/A,,Unknown,130,2014-05-08 05:53:00
1:53 AM,82.9,60.1,46,29.58,-9999.0,ESE,13.8,-,N/A,,Unknown,120,2014-05-08 06:53:00
2:53 AM,82.0,61.0,49,29.57,-9999.0,SE,8.1,-,N/A,,Unknown,130,2014-05-08 07:53:00
3:53 AM,80.1,57.0,45,29.61,-9999.0,North,9.2,-,N/A,,Unknown,350,2014-05-08 08:53:00
4:53 AM,78.1,34.0,20,29.62,-9999.0,North,10.4,-,N/A,,Unknown,10,2014-05-08 09:53:00
5:53 AM,79.0,16.0,9,29.65,-9999.0,NNW,10.4,-,N/A,,Unknown,340,2014-05-08 10:53:00
6:53 AM,75.9,17.1,11,29.69,-9999.0,WNW,5.8,-,N/A,,Unknown,300,2014-05-08 11:53:00
7:53 AM,79.0,14.0,9,29.71,-9999.0,NW,11.5,-,N/A,,Unknown,320,2014-05-08 12:53:00
8:53 AM,82.9,15.1,8,29.73,-9999.0,West,9.2,-,N/A,,Unknown,280,2014-05-08 13:53:00
9:53 AM,88.0,12.9,6,29.73,-9999.0,NNW,17.3,23.0,N/A,,Unknown,330,2014-05-08 14:53:00
10:53 AM,89.1,14.0,6,29.75,-9999.0,North,9.2,-,N/A,,Unknown,350,2014-05-08 15:53:00
11:53 AM,91.0,16.0,6,29.74,-9999.0,Calm,Calm,-,N/A,,Unknown,0,2014-05-08 16:53:00
12:53 PM,91.9,23.0,8,29.73,-9999.0,SSW,11.5,18.4,N/A,,Unknown,210,2014-05-08 17:53:00
1:53 PM,93.9,21.9,7,29.70,-9999.0,WSW,16.1,20.7,N/A,,Unknown,240,2014-05-08 18:53:00
2:53 PM,95.0,19.0,6,29.68,-9999.0,WSW,19.6,23.0,N/A,,Unknown,240,2014-05-08 19:53:00
3:25 PM,96.1,21.0,7,29.80,-9999.0,WSW,11.5,26.5,N/A,,Unknown,250,2014-05-08 20:25:00
3:53 PM,98.1,19.0,6,29.66,-9999.0,SW,21.9,29.9,N/A,,Unknown,220,2014-05-08 20:53:00
4:53 PM,97.0,18.0,6,29.65,-9999.0,SW,9.2,24.2,N/A,,Unknown,220,2014-05-08 21:53:00
5:53 PM,96.1,18.0,6,29.63,-9999.0,SW,11.5,20.7,N/A,,Unknown,230,2014-05-08 22:53:00
7:53 PM,95.0,21.0,7,29.64,-9999.0,WSW,10.4,-,N/A,,Unknown,250,2014-05-09 00:53:00
8:53 PM,87.1,21.9,9,29.67,-9999.0,WNW,8.1,-,N/A,,Unknown,300,2014-05-09 01:53:00
9:53 PM,84.0,23.0,11,29.68,-9999.0,NW,6.9,-,N/A,,Unknown,310,2014-05-09 02:53:00
10:53 PM,80.1,23.0,12,29.74,-9999.0,ENE,9.2,-,N/A,,Unknown,70,2014-05-09 03:53:00
11:53 PM,84.0,17.1,8,29.75,-9999.0,North,9.2,-,N/A,,Unknown,360,2014-05-09 04:53:00